Weather in Korcula

Croatia     42°57′33″N   17°08′05″E
temp.,
°C
wind,
m/s
gust,
m/s
humid.,
%
clouds,
%
prec.,
mm/h
press.,
hPa
HPBL,
m
17 april, sat
sat1723:00+13ne364498 0.0 1015454
02:00+11ne5749100 0.0 1014273
05:00+10ne6752100 0.0 1012318
08:00+10ne5752100 0.0 1012346
11:00+12ne3546100 0.0 1012541
14:00+13nne344792 0.0 1011821
17:00+13nne2350100 0.0 1011747
20:00+11nne1259100 0.4 1012742
18 april, sun
sun1823:00+11ene337299 0.6 1013430
02:00+10ne557524 0.6 1013548
05:00+9ne44756 0.0 1012456
08:00+9ne3371100 0.0 1014333
11:00+11e1264100 0.0 1015391
14:00+11ssw226370 0.0 1015292
17:00+12s226548 0.0 1015450
20:00+12sse2364100 0.0 1015820
19 april, mon
mon1923:00+12s4466100 0.7 1015820
02:00+11se3379100 2.2 1015464
05:00+10ne3380100 3.2 1014352
08:00+11ne447459 3.3 1014569
11:00+11ne226771 0.0 1013512
14:00+12wnw547038 0.1 1013475
17:00+12wnw67684 0.0 1012705
20:00+13wnw666635 0.1 1012773
20 april, tue
tue2023:00+12wnw6673100 1.1 1012521
02:00+12nw3472100 3.8 1012361
05:00+11nne127317 1.3 1012345
08:00+11ene12737 1.6 1013390
11:00+12sw226914 0.1 1014471
14:00+13w566229 0.1 1015804
17:00+13w346133 0.0 1014747
20:00+13ssw11615 0.0 1016657
21 april, wed
wed2123:00+13sse236510 0.0 1017832
02:00+12e33767 0.6 1018224
05:00+12e33754 0.0 1018287
08:00+12e33700 0.0 1019297
11:00+13sse33684 0.0 1020356
14:00+14sse46730 0.0 1020512
17:00+14sse45716 0.0 1019523
20:00+14se45725 0.0 1019522